| time (UTC) | temp C | wind direction | speed KPH | gust KPH | rain 1hr cm | rain 24hr cm | rain mn cm | humidity % | barometer mb |
| 20260505140505 | 13 | 21 | 11.3 | 40.2 | 0.00 | 0.36 | 0.00 | 71 | 1013.0 |
| 20260505130219 | 13 | 2 | 14.5 | 33.8 | 0.00 | 0.36 | 0.00 | 72 | 1013.0 |
| 20260505125003 | 13 | 10 | 16.1 | 40.2 | 0.00 | 0.38 | 0.00 | 71 | 1012.7 |
| 20260505124506 | 13 | 9 | 14.5 | 29.0 | 0.00 | 0.41 | 0.00 | 71 | 1012.9 |
| 20260505124005 | 14 | 11 | 12.9 | 33.8 | 0.00 | 0.43 | 0.00 | 71 | 1012.8 |
| 20260505123503 | 14 | 10 | 14.5 | 33.8 | 0.00 | 0.46 | 0.00 | 68 | 1012.8 |
| 20260505123003 | 13 | 3 | 12.9 | 37.0 | 0.00 | 0.48 | 0.00 | 66 | 1012.6 |
| 20260505122503 | 13 | 24 | 12.9 | 40.2 | 0.00 | 0.48 | 0.00 | 69 | 1012.6 |
| 20260505122221 | 13 | 40 | 14.5 | 40.2 | 0.00 | 0.48 | 0.00 | 69 | 1012.6 |
| 20260505121505 | 13 | 42 | 12.9 | 37.0 | 0.00 | 0.51 | 0.00 | 70 | 1012.4 |
| 20260505121005 | 13 | 35 | 14.5 | 37.0 | 0.00 | 0.51 | 0.00 | 68 | 1012.7 |
| 20260505120505 | 13 | 18 | 14.5 | 33.8 | 0.00 | 0.51 | 0.00 | 70 | 1012.7 |
| 20260505120005 | 13 | 13 | 12.9 | 33.8 | 0.00 | 0.51 | 0.00 | 67 | 1012.8 |
| 20260505115505 | 13 | 20 | 11.3 | 29.0 | 0.00 | 0.51 | 0.00 | 69 | 1012.7 |
| 20260505115219 | 13 | 36 | 11.3 | 29.0 | 0.00 | 0.51 | 0.00 | 69 | 1012.9 |
| 20260505114503 | 13 | 18 | 16.1 | 40.2 | 0.00 | 0.51 | 0.00 | 73 | 1012.7 |
| 20260505114005 | 13 | 14 | 16.1 | 40.2 | 0.00 | 0.51 | 0.00 | 70 | 1012.9 |
| 20260505113720 | 13 | 15 | 14.5 | 40.2 | 0.00 | 0.51 | 0.00 | 71 | 1012.7 |
| 20260505113217 | 13 | 13 | 16.1 | 29.0 | 0.00 | 0.51 | 0.00 | 71 | 1012.8 |
| 20260505112720 | 13 | 11 | 12.9 | 33.8 | 0.00 | 0.51 | 0.00 | 74 | 1012.8 |
| 20260505112003 | 13 | 12 | 12.9 | 33.8 | 0.00 | 0.61 | 0.00 | 71 | 1012.9 |
| 20260505111503 | 13 | 27 | 12.9 | 37.0 | 0.00 | 0.66 | 0.00 | 70 | 1013.1 |
| 20260505111003 | 13 | 38 | 11.3 | 37.0 | 0.00 | 0.66 | 0.00 | 69 | 1012.7 |
| 20260505110505 | 13 | 30 | 9.7 | 37.0 | 0.00 | 0.66 | 0.00 | 70 | 1012.6 |
| 20260505110218 | 14 | 7 | 11.3 | 37.0 | 0.00 | 0.66 | 0.00 | 67 | 1012.7 |
| 20260505102005 | 13 | 5 | 11.3 | 29.0 | 0.00 | 0.66 | 0.00 | 69 | 1013.0 |
| 20260505101505 | 13 | 21 | 11.3 | 29.0 | 0.00 | 0.66 | 0.00 | 70 | 1013.0 |
| 20260505101003 | 13 | 10 | 11.3 | 29.0 | 0.00 | 0.66 | 0.00 | 68 | 1013.3 |
| 20260505100503 | 13 | 5 | 11.3 | 29.0 | 0.00 | 0.66 | 0.00 | 69 | 1013.0 |
| 20260505100003 | 12 | 18 | 9.7 | 22.5 | 0.00 | 0.66 | 0.00 | 70 | 1012.9 |
| 20260505095505 | 12 | 31 | 8.0 | 22.5 | 0.00 | 0.66 | 0.00 | 70 | 1013.2 |
| 20260505095003 | 13 | 28 | 8.0 | 25.7 | 0.00 | 0.66 | 0.00 | 69 | 1013.0 |
| 20260505094505 | 13 | 28 | 11.3 | 25.7 | 0.00 | 0.66 | 0.00 | 68 | 1013.0 |
| 20260505094005 | 13 | 28 | 9.7 | 29.0 | 0.00 | 0.66 | 0.00 | 69 | 1013.0 |
| 20260505093505 | 13 | 23 | 9.7 | 29.0 | 0.00 | 0.66 | 0.00 | 69 | 1013.1 |
| 20260505093003 | 13 | 12 | 11.3 | 25.7 | 0.00 | 0.66 | 0.00 | 69 | 1012.8 |
| 20260505092503 | 13 | 6 | 11.3 | 25.7 | 0.00 | 0.66 | 0.00 | 69 | 1013.1 |
| 20260505092003 | 13 | 6 | 11.3 | 33.8 | 0.00 | 0.66 | 0.00 | 69 | 1013.2 |
| 20260505091505 | 13 | 14 | 12.9 | 33.8 | 0.00 | 0.66 | 0.00 | 68 | 1013.3 |
| 20260505091005 | 13 | 34 | 12.9 | 25.7 | 0.00 | 0.66 | 0.00 | 69 | 1013.0 |
| 20260505090503 | 13 | 32 | 14.5 | 25.7 | 0.00 | 0.66 | 0.00 | 71 | 1013.1 |
| 20260505090005 | 13 | 18 | 14.5 | 25.7 | 0.00 | 0.66 | 0.00 | 70 | 1013.3 |
| 20260505085505 | 13 | 22 | 12.9 | 25.7 | 0.00 | 0.66 | 0.00 | 71 | 1013.1 |
| 20260505085010 | 12 | 13 | 12.9 | 29.0 | 0.00 | 0.66 | 0.00 | 72 | 1013.1 |
| 20260505084717 | 12 | 7 | 12.9 | 29.0 | 0.00 | 0.66 | 0.00 | 72 | 1013.1 |
| 20260505084003 | 12 | 23 | 11.3 | 29.0 | 0.00 | 0.66 | 0.00 | 74 | 1013.3 |
| 20260505083503 | 12 | 26 | 11.3 | 29.0 | 0.00 | 0.66 | 0.00 | 74 | 1013.1 |
| 20260505083006 | 12 | 16 | 12.9 | 29.0 | 0.00 | 0.66 | 0.00 | 73 | 1013.2 |
| 20260505082718 | 12 | 6 | 12.9 | 29.0 | 0.00 | 0.66 | 0.00 | 74 | 1013.1 |
| 20260505082003 | 12 | 11 | 8.0 | 25.7 | 0.00 | 0.66 | 0.00 | 75 | 1013.3 |
| 20260505081503 | 12 | 13 | 8.0 | 25.7 | 0.00 | 0.66 | 0.00 | 75 | 1012.9 |
| 20260505081219 | 12 | 15 | 8.0 | 25.7 | 0.00 | 0.66 | 0.00 | 76 | 1013.1 |
| 20260505080505 | 12 | 33 | 6.4 | 22.5 | 0.00 | 0.66 | 0.00 | 77 | 1013.3 |
| 20260505080008 | 12 | 36 | 6.4 | 22.5 | 0.00 | 0.66 | 0.00 | 79 | 1013.2 |
| 20260505075505 | 12 | 42 | 6.4 | 19.3 | 0.00 | 0.66 | 0.00 | 81 | 1013.1 |
| 20260505075005 | 11 | 33 | 8.0 | 22.5 | 0.00 | 0.66 | 0.00 | 83 | 1013.2 |
| 20260505074718 | 11 | 28 | 6.4 | 25.7 | 0.00 | 0.66 | 0.00 | 84 | 1013.2 |
| 20260505074219 | 11 | 22 | 6.4 | 25.7 | 0.00 | 0.66 | 0.00 | 85 | 1013.2 |
| 20260505073718 | 11 | 30 | 4.8 | 22.5 | 0.00 | 0.66 | 0.00 | 88 | 1013.4 |
| 20260505073217 | 11 | 41 | 3.2 | 19.3 | 0.00 | 0.66 | 0.00 | 90 | 1013.3 |
| 20260505072503 | 11 | 54 | 1.6 | 14.5 | 0.00 | 0.66 | 0.00 | 92 | 1013.3 |
| 20260505072005 | 10 | 24 | 1.6 | 14.5 | 0.00 | 0.66 | 0.00 | 92 | 1013.2 |
| 20260505071505 | 10 | 9 | 1.6 | 11.3 | 0.00 | 0.66 | 0.00 | 92 | 1013.1 |
| 20260505071003 | 10 | 23 | 1.6 | 11.3 | 0.00 | 0.66 | 0.00 | 92 | 1013.2 |
| 20260505070505 | 10 | 47 | 3.2 | 14.5 | 0.00 | 0.66 | 0.00 | 92 | 1013.2 |
| 20260505070005 | 10 | 38 | 4.8 | 19.3 | 0.00 | 0.66 | 0.00 | 92 | 1013.1 |
| 20260505065503 | 10 | 15 | 4.8 | 19.3 | 0.00 | 0.69 | 0.00 | 92 | 1013.4 |
| 20260505065005 | 10 | 11 | 3.2 | 22.5 | 0.00 | 0.71 | 0.00 | 92 | 1013.2 |
| 20260505064503 | 10 | 7 | 1.6 | 22.5 | 0.00 | 0.74 | 0.00 | 92 | 1013.3 |
| 20260505064219 | 10 | 28 | 3.2 | 22.5 | 0.00 | 0.76 | 0.00 | 92 | 1013.3 |
| 20260505063503 | 10 | 8 | 4.8 | 19.3 | 0.00 | 0.81 | 0.00 | 92 | 1013.0 |
| 20260505063005 | 10 | 3 | 3.2 | 19.3 | 0.00 | 0.81 | 0.00 | 93 | 1013.2 |
| 20260505062505 | 10 | 34 | 4.8 | 19.3 | 0.00 | 0.86 | 0.00 | 93 | 1013.1 |
| 20260505062003 | 10 | 41 | 6.4 | 19.3 | 0.00 | 0.89 | 0.00 | 93 | 1013.4 |
| 20260505061505 | 10 | 29 | 6.4 | 19.3 | 0.00 | 0.94 | 0.00 | 93 | 1013.2 |
| 20260505061003 | 10 | 28 | 6.4 | 19.3 | 0.00 | 0.99 | 0.00 | 94 | 1013.1 |
| 20260505060504 | 10 | 31 | 6.4 | 19.3 | 0.00 | 1.04 | 0.00 | 94 | 1013.3 |
| 20260505060005 | 10 | 37 | 4.8 | 19.3 | 0.00 | 1.12 | 0.00 | 94 | 1013.2 |
| 20260505055720 | 10 | 38 | 4.8 | 19.3 | 0.00 | 1.12 | 0.00 | 94 | 1013.1 |
| 20260505055003 | 10 | 36 | 4.8 | 19.3 | 0.00 | 1.14 | 0.00 | 94 | 1013.2 |
| 20260505054718 | 10 | 36 | 6.4 | 22.5 | 0.00 | 1.14 | 0.00 | 94 | 1013.1 |
| 20260505054003 | 10 | 34 | 4.8 | 22.5 | 0.00 | 1.14 | 0.00 | 94 | 1013.0 |
| 20260505053503 | 10 | 12 | 6.4 | 25.7 | 0.00 | 1.14 | 0.00 | 95 | 1013.0 |
| 20260505053004 | 10 | 5 | 6.4 | 25.7 | 0.00 | 1.14 | 0.00 | 95 | 1013.2 |
| 20260505052505 | 10 | 4 | 4.8 | 19.3 | 0.00 | 1.14 | 0.00 | 95 | 1012.9 |
| 20260505052004 | 9 | 21 | 3.2 | 19.3 | 0.00 | 1.14 | 0.00 | 95 | 1013.1 |
| 20260505051505 | 9 | 19 | 3.2 | 22.5 | 0.00 | 1.14 | 0.00 | 94 | 1013.1 |
| 20260505051003 | 9 | 14 | 3.2 | 22.5 | 0.00 | 1.14 | 0.00 | 94 | 1012.9 |
| 20260505050505 | 9 | 36 | 3.2 | 19.3 | 0.00 | 1.14 | 0.00 | 94 | 1013.0 |
| 20260505041505 | 10 | 27 | 1.6 | 11.3 | 0.00 | 1.17 | 0.00 | 93 | 1012.9 |
| 20260505041003 | 10 | 25 | 3.2 | 11.3 | 0.00 | 1.17 | 0.00 | 93 | 1012.8 |
| 20260505040503 | 10 | 41 | 3.2 | 11.3 | 0.00 | 1.17 | 0.00 | 92 | 1012.7 |
| 20260505040005 | 10 | 34 | 1.6 | 14.5 | 0.00 | 1.17 | 0.00 | 92 | 1012.8 |
| 20260505035505 | 10 | 30 | 1.6 | 14.5 | 0.00 | 1.17 | 0.00 | 92 | 1012.9 |
| 20260505035222 | 10 | 28 | 1.6 | 14.5 | 0.00 | 1.17 | 0.00 | 92 | 1012.7 |
| 20260505034719 | 10 | 22 | 0.0 | 11.3 | 0.00 | 1.17 | 0.00 | 92 | 1012.9 |
| 20260505034005 | 10 | 37 | 0.0 | 6.4 | 0.00 | 1.17 | 0.00 | 91 | 1012.8 |
| 20260505033503 | 10 | 40 | 1.6 | 6.4 | 0.00 | 1.17 | 0.00 | 91 | 1012.6 |
| 20260505033217 | 10 | 35 | 1.6 | 6.4 | 0.00 | 1.17 | 0.00 | 91 | 1012.6 |
| 20260505032503 | 10 | 30 | 1.6 | 14.5 | 0.00 | 1.17 | 0.00 | 91 | 1012.8 |
| 20260505032007 | 10 | 24 | 1.6 | 14.5 | 0.00 | 1.17 | 0.00 | 92 | 1012.7 |
| 20260505031505 | 10 | 27 | 0.0 | 11.3 | 0.00 | 1.17 | 0.00 | 92 | 1012.7 |
| 20260505031003 | 10 | 29 | 0.0 | 3.2 | 0.00 | 1.17 | 0.00 | 92 | 1012.5 |
| 20260505030505 | 10 | 0 | 0.0 | 0.0 | 0.00 | 1.17 | 0.00 | 92 | 1012.8 |
| 20260505030005 | 10 | 38 | 0.0 | 3.2 | 0.00 | 1.17 | 0.00 | 92 | 1012.5 |
| 20260505025505 | 11 | 43 | 0.0 | 6.4 | 0.00 | 1.17 | 0.00 | 92 | 1012.6 |
| 20260505025005 | 11 | 50 | 1.6 | 11.3 | 0.00 | 1.17 | 0.00 | 92 | 1012.6 |
| 20260505024503 | 11 | 48 | 1.6 | 11.3 | 0.00 | 1.17 | 0.00 | 92 | 1012.5 |
| 20260505024003 | 11 | 55 | 3.2 | 11.3 | 0.00 | 1.17 | 0.00 | 92 | 1012.6 |
| 20260505023505 | 11 | 65 | 1.6 | 11.3 | 0.00 | 1.17 | 0.00 | 93 | 1012.7 |
| 20260505023003 | 10 | 70 | 0.0 | 11.3 | 0.00 | 1.17 | 0.00 | 93 | 1012.8 |
| 20260505022718 | 10 | 52 | 0.0 | 6.4 | 0.00 | 1.17 | 0.00 | 93 | 1012.6 |
| 20260505022003 | 10 | 45 | 1.6 | 11.3 | 0.00 | 1.17 | 0.00 | 93 | 1012.8 |
| 20260505021505 | 10 | 24 | 1.6 | 11.3 | 0.00 | 1.17 | 0.00 | 93 | 1012.7 |
| 20260505021219 | 10 | 11 | 1.6 | 11.3 | 0.00 | 1.17 | 0.00 | 93 | 1012.4 |
| 20260505020506 | 10 | 38 | 0.0 | 3.2 | 0.00 | 1.17 | 0.00 | 93 | 1012.7 |
| 20260505020217 | 10 | 38 | 0.0 | 3.2 | 0.00 | 1.17 | 0.00 | 93 | 1012.3 |
| 20260505015505 | 10 | 45 | 0.0 | 3.2 | 0.00 | 1.17 | 0.00 | 93 | 1012.6 |
| 20260505015005 | 10 | 40 | 0.0 | 6.4 | 0.00 | 1.17 | 0.00 | 93 | 1012.6 |
| 20260505014505 | 10 | 30 | 1.6 | 6.4 | 0.00 | 1.17 | 0.00 | 93 | 1012.6 |
| 20260505014003 | 10 | 35 | 1.6 | 6.4 | 0.00 | 1.17 | 0.00 | 93 | 1012.8 |
| 20260505013503 | 10 | 50 | 1.6 | 11.3 | 0.00 | 1.17 | 0.00 | 93 | 1012.8 |
| 20260505013005 | 10 | 39 | 3.2 | 11.3 | 0.00 | 1.17 | 0.00 | 93 | 1012.8 |
| 20260505012503 | 10 | 33 | 3.2 | 11.3 | 0.00 | 1.17 | 0.00 | 93 | 1012.7 |
| 20260505012221 | 10 | 32 | 1.6 | 11.3 | 0.00 | 1.17 | 0.00 | 93 | 1012.8 |
| 20260505011720 | 10 | 0 | 0.0 | 0.0 | 0.00 | 1.17 | 0.00 | 93 | 1012.9 |
| 20260505011003 | 10 | 9 | 0.0 | 6.4 | 0.00 | 1.17 | 0.00 | 93 | 1012.9 |
| 20260505010503 | 10 | 7 | 1.6 | 6.4 | 0.00 | 1.17 | 0.00 | 93 | 1013.1 |
| 20260505010219 | 10 | 27 | 0.0 | 11.3 | 0.00 | 1.17 | 0.00 | 93 | 1012.8 |
| 20260505005503 | 10 | 47 | 0.0 | 11.3 | 0.00 | 1.17 | 0.00 | 93 | 1013.2 |
| 20260505005219 | 10 | 87 | 0.0 | 11.3 | 0.00 | 1.17 | 0.00 | 93 | 1013.1 |
| 20260505004503 | 10 | 0 | 0.0 | 0.0 | 0.00 | 1.17 | 0.00 | 93 | 1012.9 |
| 20260505004005 | 10 | 0 | 0.0 | 0.0 | 0.00 | 1.17 | 0.00 | 93 | 1013.1 |
| 20260505003503 | 10 | 0 | 0.0 | 0.0 | 0.00 | 1.17 | 0.00 | 93 | 1013.3 |
| 20260505003003 | 10 | 0 | 0.0 | 0.0 | 0.00 | 1.17 | 0.00 | 92 | 1013.2 |
| 20260505002503 | 10 | 0 | 0.0 | 0.0 | 0.00 | 1.19 | 0.00 | 92 | 1013.0 |
| 20260505002005 | 10 | 0 | 0.0 | 0.0 | 0.00 | 1.19 | 0.00 | 92 | 1013.0 |
| 20260505001503 | 10 | 0 | 0.0 | 0.0 | 0.00 | 1.19 | 0.00 | 92 | 1013.1 |
| 20260505001005 | 10 | 0 | 0.0 | 0.0 | 0.00 | 1.19 | 0.00 | 92 | 1013.3 |
| 20260505000503 | 10 | 0 | 0.0 | 0.0 | 0.00 | 1.22 | 0.00 | 92 | 1013.2 |
| 20260505000219 | 10 | 0 | 0.0 | 0.0 | 0.00 | 1.22 | 0.00 | 92 | 1013.2 |
| 20260504235505 | 10 | 0 | 0.0 | 0.0 | 0.00 | 1.24 | 0.00 | 91 | 1013.3 |
| 20260504235003 | 10 | 0 | 0.0 | 0.0 | 0.00 | 1.27 | 0.00 | 91 | 1013.1 |
| 20260504234503 | 10 | 0 | 0.0 | 0.0 | 0.00 | 1.27 | 0.00 | 91 | 1013.2 |
| 20260504234003 | 10 | 0 | 0.0 | 0.0 | 0.00 | 1.30 | 0.00 | 91 | 1013.1 |
| 20260504233505 | 10 | 0 | 0.0 | 0.0 | 0.00 | 1.30 | 0.00 | 91 | 1013.2 |
| 20260504233003 | 10 | 0 | 0.0 | 0.0 | 0.00 | 1.30 | 0.00 | 91 | 1013.4 |
| 20260504232505 | 10 | 0 | 0.0 | 0.0 | 0.00 | 1.32 | 0.00 | 91 | 1013.4 |
| 20260504232003 | 10 | 0 | 0.0 | 0.0 | 0.00 | 1.32 | 0.00 | 90 | 1013.0 |
| 20260504231505 | 10 | 353 | 0.0 | 3.2 | 0.00 | 1.32 | 0.00 | 90 | 1013.2 |
| 20260504231005 | 10 | 44 | 0.0 | 11.3 | 0.00 | 1.32 | 0.00 | 89 | 1013.2 |
| 20260504230719 | 10 | 45 | 1.6 | 11.3 | 0.00 | 1.32 | 0.00 | 89 | 1013.0 |
| 20260504230004 | 10 | 17 | 1.6 | 19.3 | 0.00 | 1.32 | 0.00 | 89 | 1013.5 |
| 20260504225503 | 10 | 47 | 0.0 | 6.4 | 0.00 | 1.32 | 1.32 | 89 | 1013.2 |
| 20260504225003 | 10 | 28 | 1.6 | 11.3 | 0.00 | 1.32 | 1.32 | 89 | 1013.4 |
| 20260504224719 | 10 | 23 | 1.6 | 11.3 | 0.00 | 1.32 | 1.32 | 89 | 1013.2 |
| 20260504224003 | 10 | 50 | 0.0 | 6.4 | 0.00 | 1.32 | 1.32 | 88 | 1013.4 |
| 20260504223719 | 10 | 32 | 0.0 | 11.3 | 0.00 | 1.32 | 1.32 | 88 | 1013.3 |
| 20260504223005 | 10 | 38 | 3.2 | 11.3 | 0.00 | 1.32 | 1.32 | 88 | 1013.4 |
| 20260504222505 | 10 | 44 | 1.6 | 11.3 | 0.00 | 1.32 | 1.32 | 88 | 1013.3 |
| 20260504222005 | 10 | 28 | 1.6 | 19.3 | 0.00 | 1.32 | 1.32 | 88 | 1013.6 |
| 20260504221503 | 10 | 16 | 3.2 | 22.5 | 0.00 | 1.32 | 1.32 | 88 | 1013.4 |
| 20260504221004 | 10 | 16 | 4.8 | 22.5 | 0.00 | 1.32 | 1.32 | 88 | 1013.4 |
| 20260504220504 | 10 | 38 | 3.2 | 19.3 | 0.00 | 1.32 | 1.32 | 89 | 1013.3 |
| 20260504220006 | 10 | 42 | 4.8 | 19.3 | 0.00 | 1.32 | 1.32 | 89 | 1013.5 |
| 20260504215503 | 10 | 35 | 6.4 | 25.7 | 0.00 | 1.32 | 1.32 | 90 | 1013.5 |
| 20260504215005 | 10 | 37 | 4.8 | 25.7 | 0.00 | 1.32 | 1.32 | 90 | 1013.3 |
| 20260504214716 | 10 | 33 | 4.8 | 25.7 | 0.00 | 1.32 | 1.32 | 91 | 1013.6 |
| 20260504214005 | 10 | 29 | 3.2 | 22.5 | 0.00 | 1.32 | 1.32 | 91 | 1013.7 |
| 20260504213718 | 10 | 28 | 6.4 | 22.5 | 0.00 | 1.32 | 1.32 | 91 | 1013.7 |
| 20260504213005 | 10 | 32 | 6.4 | 19.3 | 0.00 | 1.32 | 1.32 | 92 | 1013.6 |
| 20260504212505 | 10 | 29 | 3.2 | 19.3 | 0.00 | 1.32 | 1.32 | 92 | 1013.9 |
| 20260504212005 | 10 | 32 | 3.2 | 19.3 | 0.00 | 1.32 | 1.32 | 92 | 1013.6 |
| 20260504211505 | 10 | 45 | 3.2 | 14.5 | 0.00 | 1.32 | 1.32 | 92 | 1013.3 |
| 20260504211010 | 10 | 34 | 3.2 | 14.5 | 0.00 | 1.32 | 1.32 | 92 | 1013.5 |
| 20260504210504 | 10 | 43 | 1.6 | 14.5 | 0.00 | 1.32 | 1.32 | 92 | 1013.4 |
| 20260504210005 | 10 | 32 | 1.6 | 22.5 | 0.00 | 1.32 | 1.32 | 93 | 1013.5 |
| 20260504205503 | 10 | 22 | 3.2 | 22.5 | 0.00 | 1.32 | 1.32 | 93 | 1013.6 |
| 20260504205003 | 10 | 24 | 4.8 | 22.5 | 0.00 | 1.32 | 1.32 | 93 | 1013.5 |
| 20260504204718 | 10 | 16 | 3.2 | 14.5 | 0.00 | 1.32 | 1.32 | 93 | 1013.4 |
| 20260504204005 | 10 | 5 | 1.6 | 19.3 | 0.00 | 1.32 | 1.32 | 93 | 1013.6 |
| 20260504203503 | 10 | 49 | 4.8 | 25.7 | 0.00 | 1.32 | 1.32 | 93 | 1013.5 |
| 20260504203005 | 10 | 44 | 4.8 | 25.7 | 0.03 | 1.32 | 1.32 | 93 | 1013.3 |
| 20260504202504 | 10 | 20 | 3.2 | 14.5 | 0.03 | 1.32 | 1.32 | 93 | 1013.4 |
| 20260504202005 | 10 | 15 | 3.2 | 14.5 | 0.03 | 1.32 | 1.32 | 93 | 1013.4 |
| 20260504201503 | 10 | 18 | 4.8 | 14.5 | 0.05 | 1.32 | 1.32 | 93 | 1013.4 |
| 20260504201003 | 10 | 40 | 4.8 | 14.5 | 0.05 | 1.32 | 1.32 | 93 | 1013.3 |
| 20260504200505 | 10 | 39 | 3.2 | 14.5 | 0.05 | 1.32 | 1.32 | 93 | 1013.2 |
| 20260504200005 | 10 | 35 | 4.8 | 19.3 | 0.05 | 1.32 | 1.32 | 93 | 1013.3 |
| 20260504195503 | 10 | 43 | 8.0 | 19.3 | 0.05 | 1.32 | 1.32 | 93 | 1013.3 |
| 20260504195005 | 10 | 47 | 6.4 | 22.5 | 0.05 | 1.32 | 1.32 | 93 | 1013.1 |
| 20260504194503 | 10 | 44 | 6.4 | 29.0 | 0.05 | 1.32 | 1.32 | 93 | 1013.1 |
| 20260504194005 | 11 | 37 | 6.4 | 29.0 | 0.05 | 1.32 | 1.32 | 92 | 1013.0 |
| 20260504193505 | 11 | 37 | 4.8 | 25.7 | 0.05 | 1.32 | 1.32 | 92 | 1012.9 |
| 20260504193217 | 11 | 42 | 4.8 | 25.7 | 0.03 | 1.30 | 1.30 | 92 | 1013.1 |
| 20260504192503 | 11 | 31 | 6.4 | 19.3 | 0.03 | 1.30 | 1.30 | 92 | 1012.8 |
| 20260504192218 | 11 | 10 | 4.8 | 19.3 | 0.03 | 1.30 | 1.30 | 92 | 1012.8 |
| 20260504191504 | 11 | 20 | 6.4 | 25.7 | 0.00 | 1.27 | 1.27 | 92 | 1012.8 |
| 20260504191005 | 11 | 30 | 6.4 | 25.7 | 0.00 | 1.27 | 1.27 | 92 | 1013.0 |
| 20260504190504 | 11 | 37 | 4.8 | 25.7 | 0.00 | 1.27 | 1.27 | 92 | 1012.9 |
| 20260504190005 | 11 | 29 | 8.0 | 25.7 | 0.00 | 1.27 | 1.27 | 91 | 1012.6 |
| 20260504185505 | 11 | 40 | 8.0 | 25.7 | 0.00 | 1.27 | 1.27 | 91 | 1012.7 |
| 20260504185005 | 11 | 48 | 9.7 | 25.7 | 0.00 | 1.27 | 1.27 | 91 | 1012.6 |
| 20260504184720 | 11 | 34 | 11.3 | 25.7 | 0.00 | 1.27 | 1.27 | 91 | 1012.7 |
| 20260504184005 | 11 | 22 | 11.3 | 40.2 | 0.00 | 1.27 | 1.27 | 91 | 1012.8 |
| 20260504183503 | 11 | 24 | 11.3 | 40.2 | 0.00 | 1.27 | 1.27 | 91 | 1012.5 |
| 20260504183003 | 11 | 16 | 8.0 | 25.7 | 0.00 | 1.27 | 1.27 | 91 | 1012.5 |
| 20260504182505 | 11 | 13 | 8.0 | 22.5 | 0.00 | 1.27 | 1.27 | 91 | 1012.6 |
| 20260504182003 | 11 | 7 | 11.3 | 25.7 | 0.00 | 1.27 | 1.27 | 91 | 1012.4 |
| 20260504181717 | 11 | 22 | 9.7 | 25.7 | 0.00 | 1.27 | 1.27 | 91 | 1012.5 |
| 20260504181005 | 11 | 40 | 9.7 | 29.0 | 0.00 | 1.27 | 1.27 | 91 | 1012.6 |
| 20260504180505 | 11 | 33 | 9.7 | 33.8 | 0.00 | 1.27 | 1.27 | 90 | 1012.6 |
| 20260504180003 | 11 | 23 | 11.3 | 33.8 | 0.00 | 1.27 | 1.27 | 91 | 1012.4 |
| 20260504175505 | 11 | 34 | 11.3 | 33.8 | 0.00 | 1.27 | 1.27 | 91 | 1012.4 |
| 20260504175003 | 11 | 34 | 9.7 | 33.8 | 0.00 | 1.27 | 1.27 | 91 | 1012.4 |
| 20260504174719 | 11 | 30 | 9.7 | 29.0 | 0.00 | 1.27 | 1.27 | 92 | 1012.6 |
| 20260504174005 | 11 | 24 | 11.3 | 25.7 | 0.00 | 1.27 | 1.27 | 92 | 1012.5 |
| 20260504173717 | 11 | 12 | 11.3 | 25.7 | 0.00 | 1.27 | 1.27 | 92 | 1012.7 |
| 20260504173005 | 11 | 32 | 6.4 | 29.0 | 0.00 | 1.27 | 1.27 | 92 | 1012.7 |
| 20260504172503 | 11 | 24 | 8.0 | 29.0 | 0.00 | 1.27 | 1.27 | 92 | 1012.7 |
| 20260504172003 | 11 | 7 | 9.7 | 25.7 | 0.00 | 1.27 | 1.27 | 92 | 1012.6 |
| 20260504171503 | 11 | 22 | 8.0 | 25.7 | 0.00 | 1.27 | 1.27 | 93 | 1012.7 |
| 20260504171004 | 11 | 42 | 8.0 | 25.7 | 0.00 | 1.27 | 1.27 | 93 | 1012.7 |
| 20260504170505 | 11 | 34 | 6.4 | 25.7 | 0.00 | 1.27 | 1.27 | 93 | 1012.7 |
| 20260504151005 | 13 | 47 | 0.0 | 3.2 | 0.05 | 1.04 | 1.04 | 92 | 1012.7 |
| 20260504150505 | 13 | 67 | 0.0 | 6.4 | 0.08 | 1.04 | 1.04 | 92 | 1012.6 |